• Join FlightAware (Why Join?)
  • Login
  • US Flag GB Flag 
10:20 EDT


 

Airport Tracker/Info


-or-


 

Live Flight TrackerFlight Track Log ✈ EJA982 ✈ 21-Apr-2013 ✈ KONT - KBFI

Flight Track Log - Related Links

Times and Time Zones

All times are in EDT time to prevent confusion due to time zone crossing. See the EJA982 flight status page for this flight to view local times or setup timezone preferences in your user account.

Time Position Orientation Groundspeed Altitude Reporting Facility
EDT Latitude Longitude Course Direction KTS MPH feet Rate Location/Type
13:35 34.0572 -117.6367 275° West 188 216 2,800  Level Los Angeles Center
13:37 34.0631 -117.7117 275° West 218 251 6,400 1,980 Climbing Los Angeles Center
13:38 34.0853 -117.7989 287° West 260 299 7,000 1,920 Climbing Los Angeles Center
13:39 34.1389 -117.8736 311° West 291 335 10,400 2,820 Climbing Los Angeles Center
13:40 34.1936 -117.9542 309° West 310 357 12,900 3,060 Climbing Los Angeles Center
13:41 34.2700 -118.0678 309° West 362 417 16,800 2,700 Climbing Los Angeles Center
13:42 34.3353 -118.1633 310° West 369 425 18,600 1,680 Climbing Los Angeles Center
13:43 34.4039 -118.2647 309° West 388 447 20,300 1,500 Climbing Los Angeles Center
13:44 34.4731 -118.3681 309° West 395 455 22,100 1,620 Climbing Los Angeles Center
13:45 34.5644 -118.4842 314° West 400 460 24,100 1,920 Climbing Los Angeles Center
13:46 34.6967 -118.5358 342° North 416 479 26,100 1,680 Climbing Los Angeles Center
13:47 34.8114 -118.5703 346° North 422 486 27,600 1,440 Climbing Los Angeles Center
13:48 34.9192 -118.6064 345° North 434 499 29,100 1,500 Climbing Los Angeles Center
13:49 35.0653 -118.6517 346° North 450 518 30,800 1,500 Climbing Los Angeles Center
13:50 35.1869 -118.6908 345° North 452 520 32,300 2,160 Climbing Los Angeles Center
13:51 35.3131 -118.7278 347° North 463 533 35,400 2,400 Climbing Los Angeles Center
13:52 35.4294 -118.7647 345° North 447 514 37,300 1,680 Climbing Los Angeles Center
13:53 35.5414 -118.8025 345° North 431 496 38,900 1,560 Climbing Los Angeles Center
13:54 35.6350 -118.8322 346° North 434 499 40,000 600 Climbing Oakland Center
13:55 35.7539 -118.8689 346° North 438 504 40,000  Level Oakland Center
13:56 35.8808 -118.9100 345° North 460 529 40,000  Level Oakland Center
13:57 36.0114 -118.9528 345° North 477 549 40,000  Level Oakland Center
13:58 36.1422 -118.9950 345° North 485 558 40,000  Level Oakland Center
13:59 36.2731 -119.0364 346° North 487 560 40,000  Level Oakland Center
14:00 36.4075 -119.0803 345° North 495 570 40,000  Level Oakland Center
14:01 36.5642 -119.1319 345° North 487 560 40,000  Level Oakland Center
14:02 36.6961 -119.1744 346° North 492 566 40,000  Level Oakland Center
14:03 36.8281 -119.2192 345° North 493 567 40,000  Level Oakland Center
14:04 36.9597 -119.2631 345° North 495 570 40,000  Level Oakland Center
14:05 37.0919 -119.3092 344° North 499 574 40,000  Level Oakland Center
14:06 37.2256 -119.3519 346° North 502 578 40,000  Level Oakland Center
14:07 37.3567 -119.3956 345° North 499 574 40,000  Level Oakland Center
14:08 37.5142 -119.4464 346° North 489 563 40,000  Level Oakland Center
14:09 37.6425 -119.4883 345° North 480 552 40,000  Level Oakland Center
14:10 37.7703 -119.5311 345° North 478 550 40,000  Level Oakland Center
14:11 37.8997 -119.5761 345° North 482 555 40,000  Level Oakland Center
14:12 38.0314 -119.6178 346° North 486 559 40,000  Level Oakland Center
14:13 38.1592 -119.6631 344° North 483 556 40,000  Level Oakland Center
14:14 38.2900 -119.7081 345° North 484 557 40,000  Level Oakland Center
14:15 38.4458 -119.7614 345° North 485 558 40,000  Level Oakland Center
14:17 38.5756 -119.8081 344° North 484 557 40,000  Level Oakland Center
14:18 38.7083 -119.8531 345° North 491 565 40,000  Level Oakland Center
14:19 38.8381 -119.8981 345° North 487 560 40,000  Level Oakland Center
14:20 38.9714 -119.9464 344° North 486 559 40,000  Level Oakland Center
14:21 39.1014 -119.9917 345° North 483 556 40,000 480 Level Oakland Center
14:22 39.2314 -120.0375 345° North 482 555 41,000 960 Climbing Oakland Center
14:23 39.3553 -120.0814 345° North 472 543 42,000 960 Climbing Oakland Center
14:24 39.4931 -120.1297 345° North 459 528 43,000 480 Climbing Oakland Center
14:25 39.6119 -120.1714 345° North 448 516 43,000  Level Oakland Center
14:26 39.7358 -120.2164 344° North 457 526 43,000  Level Oakland Center
14:27 39.8592 -120.2611 344° North 461 531 43,000  Level Oakland Center
14:28 39.9839 -120.3058 345° North 464 534 43,000  Level Oakland Center
14:29 40.1186 -120.3544 345° North 466 536 43,000  Level Oakland Center
14:30 40.2439 -120.4006 344° North 466 536 43,000  Level Oakland Center
14:31 40.3686 -120.4447 345° North 464 534 43,000  Level Oakland Center
14:32 40.5094 -120.4961 344° North 465 535 43,000  Level Oakland Center
14:33 40.6433 -120.5444 345° North 471 542 43,000  Level Oakland Center
14:34 40.7664 -120.5911 344° North 466 536 43,000  Level Oakland Center
14:35 40.8886 -120.6367 344° North 461 531 43,000  Level Oakland Center
14:36 41.0117 -120.6819 344° North 461 531 43,000  Level Oakland Center
14:37 41.1369 -120.7289 344° North 468 539 43,000  Level Oakland Center
14:38 41.2594 -120.7756 344° North 462 532 43,000  Level Oakland Center
14:39 41.4067 -120.8319 344° North 461 531 43,000  Level Seattle Center
14:40 41.5281 -120.8781 344° North 457 526 43,000  Level Seattle Center
14:41 41.6503 -120.9253 344° North 457 526 43,000  Level Seattle Center
14:42 41.7731 -120.9711 344° North 458 527 43,000  Level Seattle Center
14:43 41.8953 -121.0186 344° North 460 529 43,000  Level Seattle Center
14:44 42.0175 -121.0650 344° North 459 528 43,000  Level Seattle Center
14:45 42.1419 -121.1125 344° North 465 535 43,000  Level Seattle Center
14:46 42.2653 -121.1597 344° North 467 537 43,000  Level Seattle Center
14:47 42.4133 -121.2172 344° North 466 536 43,000  Level Seattle Center
14:48 42.5347 -121.2633 344° North 456 525 43,000  Level Seattle Center
14:49 42.6575 -121.3122 344° North 461 531 43,000  Level Seattle Center
14:50 42.7808 -121.3589 344° North 461 531 43,000  Level Seattle Center
14:51 42.9042 -121.4106 343° North 463 533 43,000  Level Seattle Center
14:52 43.0233 -121.4572 344° North 448 516 43,000  Level Seattle Center
14:53 43.1403 -121.5033 344° North 441 507 43,000  Level Seattle Center
14:54 43.2592 -121.5500 344° North 443 510 43,000  Level Seattle Center
14:55 43.3775 -121.5989 343° North 445 512 43,000  Level Seattle Center
14:56 43.4981 -121.6475 344° North 449 517 43,000  Level Seattle Center
14:57 43.6189 -121.6964 344° North 452 520 43,000  Level Seattle Center
14:58 43.7372 -121.7458 343° North 446 513 43,000  Level Seattle Center
15:00 43.8644 -121.7942 345° North 449 517 43,000  Level Seattle Center
15:01 43.9844 -121.8428 344° North 449 517 43,000  Level Seattle Center
15:02 44.1144 -121.8964 344° North 456 525 43,000  Level Seattle Center
15:03 44.2328 -121.9447 344° North 447 514 43,000  Level Seattle Center
15:04 44.3497 -121.9928 344° North 439 505 43,000  Level Seattle Center
15:05 44.4689 -122.0428 343° North 446 513 43,000  Level Seattle Center
15:06 44.6128 -122.1036 343° North 451 519 43,000  Level Seattle Center
15:07 44.7328 -122.1542 343° North 452 520 43,000  Level Seattle Center
15:08 44.8506 -122.2039 343° North 446 513 43,000  Level Seattle Center
15:09 44.9567 -122.2497 343° North 446 513 43,000  Level Seattle Center
15:10 45.0750 -122.3011 343° North 448 516 43,000  Level Seattle Center
15:11 45.2169 -122.3611 343° North 445 512 43,000 -300 Level Seattle Center
15:12 45.3336 -122.4106 343° North 442 509 42,400 -840 Descending Seattle Center
15:13 45.4558 -122.4631 343° North 456 525 41,400 -900 Descending Seattle Center
15:14 45.5819 -122.5172 343° North 473 544 40,600 -780 Descending Seattle Center
15:15 45.7064 -122.5725 343° North 472 543 39,900 -960 Descending Seattle Center
15:16 45.8250 -122.6092 348° North 438 504 38,700 -1,560 Descending Seattle Center
15:17 45.9331 -122.6378 350° North 403 464 36,800 -1,800 Descending Seattle Center
15:18 46.0269 -122.6628 350° North 348 400 35,100 -1,680 Descending Seattle Center
15:19 46.1164 -122.6831 351° North 329 379 33,400 -1,800 Descending Seattle Center
15:20 46.2169 -122.7106 349° North 316 364 31,500 -1,920 Descending Seattle Center
15:21 46.3069 -122.7314 351° North 328 377 29,500 -1,920 Descending Seattle Center
15:22 46.4022 -122.7272 North 344 396 27,700 -1,800 Descending Seattle Center
15:23 46.4975 -122.7072 North 348 400 25,900 -1,800 Descending Seattle Center
15:24 46.5906 -122.6931 North 342 394 24,100 -1,980 Descending Seattle Center
15:24 46.6433 -122.6819 North 314 361 22,900 -1,800 Descending Seattle Center
15:25 46.6750 -122.6772 North 317 365 22,300 -1,800 Descending Seattle Center
15:25 46.7181 -122.6708 North 295 339 21,300 -1,620 Descending Seattle Center
15:26 46.7533 -122.6636 North 292 336 20,700 -1,500 Descending Seattle Center
15:26 46.7989 -122.6567 North 288 331 19,800 -1,500 Descending Seattle Center
15:27 46.8336 -122.6500 North 291 335 19,200 -1,560 Descending Seattle Center
15:27 46.8919 -122.6389 North 296 341 18,100 -1,800 Descending Seattle Center
15:28 46.9303 -122.6319 North 295 339 17,400 -1,500 Descending Seattle Center
15:29 46.9708 -122.6256 North 287 330 16,600 -1,380 Descending Seattle Center
15:29 47.0078 -122.6189 North 283 326 16,000 -1,380 Descending Seattle Center
15:30 47.0475 -122.6133 North 277 319 15,200 -1,380 Descending Seattle Center
15:30 47.0836 -122.6058 North 278 320 14,600 -1,440 Descending Seattle Center
15:31 47.1264 -122.6000 North 282 325 13,800 -1,500 Descending Seattle Center
15:31 47.1622 -122.5919 North 288 331 13,100 -1,500 Descending Seattle Center
15:32 47.2044 -122.5836 North 287 330 12,300 -1,140 Descending Seattle Center
15:32 47.2367 -122.5633 23° Northeast 285 328 12,000 -1,140 Descending Seattle Center
15:33 47.2753 -122.5125 42° Northeast 298 343 11,200 -1,500 Descending Seattle Center
15:33 47.2978 -122.4842 40° Northeast 296 341 10,500 -1,800 Descending Seattle Center
15:34 47.3419 -122.4597 21° North 274 315 9,400 -1,800 Descending Seattle Center
15:34 47.3675 -122.4578 North 268 308 8,700 -1,920 Descending Seattle Center
15:35 47.4217 -122.4586 359° North 256 295 7,300 -1,800 Descending Seattle Center
15:35 47.4394 -122.4567 North 261 300 6,900 -1,680 Descending Seattle Center
15:36 47.4947 -122.4578 359° North 260 299 5,600 -1,800 Descending Seattle Center
15:36 47.5114 -122.4586 358° North 260 299 5,100 -1,380 Descending Seattle Center
15:37 47.5542 -122.4647 354° North 251 289 4,500 -1,320 Descending Seattle Center
15:37 47.5858 -122.4897 332° Northwest 217 250 3,800 -1,020 Descending Seattle Center
15:38 47.6025 -122.5069 325° Northwest 188 216 3,500 -900 Descending Seattle Center
15:38 47.6292 -122.5275 333° Northwest 182 209 2,900 -900 Descending Seattle Center
15:39 47.6458 -122.5292 356° North 167 192 2,600 -720 Descending Seattle Center
15:39 47.6608 -122.4936 58° Northeast 167 192 2,200 -420 Descending Seattle Center
15:40 47.6736 -122.4711 50° Northeast 170 196 2,200  Level Seattle Center
15:40 47.6675 -122.4328 103° East 173 199 2,200  Level Seattle Center
15:41 47.6503 -122.4053 133° Southeast 170 196 2,200 -120 Level Seattle Center
15:41 47.6314 -122.3894 151° Southeast 170 196 2,100 -540 Descending Seattle Center
15:42 47.6106 -122.3711 149° Southeast 167 192 1,700 -720 Descending Seattle Center
15:42 47.5944 -122.3575 150° Southeast 154 177 1,400 -840 Descending Seattle Center
15:43 47.5789 -122.3425 147° Southeast 134 154 900 -900 Descending Seattle Center
15:43 47.5603 -122.3289 154° Southeast 134 154 500 -720 Descending Seattle Center
15:44 47.5481 -122.3169 147° Southeast 146 168 200 -600 Descending Seattle Center